Location: São Paulo
(23.5507°S, 46.6334°W)
Time: 15:25:56
(UTC-03:00)

Transit 2A Rocket - All Passes

Search period start: 18 February 2026 00:00
Search period end: 28 February 2026 00:00
Orbit: 582 x 901 km, 66.7° (Epoch: 18 February)

Date Brightness Start Highest point End Pass type
(mag) Time Alt. Az. Time Alt. Az. Time Alt. Az.
18 Feb - 03:08:51 10° NNW 03:13:14 71° ENE 03:17:29 10° SSE visible
18 Feb - 13:40:49 10° SSW 13:46:02 85° ESE 13:51:42 10° NNE daylight
19 Feb - 02:23:59 10° NNE 02:27:44 28° ENE 02:31:23 10° SE visible
19 Feb - 04:07:22 10° W 04:09:57 15° WSW 04:12:30 10° SSW visible
19 Feb - 12:55:33 10° S 13:00:26 40° ESE 13:05:40 10° NE daylight
19 Feb - 14:39:02 10° WSW 14:42:31 18° WNW 14:46:10 10° NNW daylight
20 Feb - 01:40:53 10° NE 01:42:18 11° ENE 01:43:43 10° E night (unlit)
20 Feb - 03:20:15 10° NW 03:24:13 35° WSW 03:28:09 10° S visible
20 Feb - 12:10:57 10° SSE 12:14:45 20° ESE 12:18:44 10° ENE daylight
20 Feb - 13:52:12 10° SW 13:57:02 37° WNW 14:02:11 10° N daylight
21 Feb - 02:34:15 10° NNW 02:38:38 88° WSW 02:42:55 10° SSE visible
21 Feb - 13:06:14 10° SSW 13:11:29 78° WNW 13:17:10 10° NNE daylight
22 Feb - 01:49:06 10° N 01:53:06 36° ENE 01:57:02 10° SE night (unlit)
22 Feb - 03:33:45 10° W 03:35:26 12° WSW 03:37:07 10° SW visible
22 Feb - 12:20:49 10° S 12:25:54 50° ESE 12:31:22 10° NE daylight
22 Feb - 14:05:09 10° WSW 14:07:56 14° WNW 14:10:47 10° NW daylight
23 Feb - 01:05:11 10° NE 01:07:40 15° ENE 01:10:07 10° ESE night (unlit)
23 Feb - 02:45:58 10° WNW 02:49:39 27° WSW 02:53:19 10° S visible
23 Feb - 11:35:58 10° S 11:40:13 25° ESE 11:44:44 10° ENE daylight
23 Feb - 13:17:50 10° SW 13:22:27 30° WNW 13:27:20 10° NNW daylight
24 Feb - 01:59:42 10° NNW 02:04:01 67° WSW 02:08:16 10° SSE night (unlit)
24 Feb - 10:52:24 10° SE 10:54:25 12° ESE 10:56:29 10° E daylight
24 Feb - 12:31:41 10° SSW 12:36:54 63° WNW 12:42:33 10° N daylight
25 Feb - 01:14:18 10° N 01:18:29 47° ENE 01:22:35 10° SE night (unlit)
25 Feb - 11:46:07 10° SSW 11:51:20 63° ESE 11:56:58 10° NNE daylight
25 Feb - 13:31:48 10° W 13:33:19 11° WNW 13:34:51 10° WNW daylight
26 Feb - 00:29:55 10° NNE 00:33:02 19° ENE 00:36:05 10° ESE night (unlit)
26 Feb - 02:11:47 10° WNW 02:15:06 21° WSW 02:18:24 10° SSW night (unlit)
26 Feb - 11:01:04 10° S 11:05:41 30° ESE 11:10:36 10° NE daylight
26 Feb - 12:43:34 10° SW 12:47:52 24° WNW 12:52:23 10° NNW daylight
27 Feb - 01:25:13 10° NW 01:29:25 51° WSW 01:33:35 10° S night (unlit)
27 Feb - 10:16:53 10° SSE 10:19:56 15° ESE 10:23:04 10° E daylight
27 Feb - 11:57:11 10° SW 12:02:20 51° WNW 12:07:52 10° N daylight
